www.pogodaiklimat.ru

Погода и климат >> Архив погоды >> Греция >> Митилини


ПОГОДА в Митилини

  • Прогноз погоды в Митилини
  • Монитор погоды в Митилини

АРХИВ ПОГОДЫ в Митилини

Время (UTC), дата Ветер
(напр.,м/с)
 
Видим.   Явления Облачность Т
(С)
Тd
(С)
f
(%)
Тe
(С)
Тes
(С)
Комфортность P
(гПа)
Po
(гПа)
Тmin
(С)
Tmax
(С)
R
(мм)
R24
(мм)
S
(см)
09 11.08 СЗ 5
{9}
10 км ясно +29.8 +15.3 41 +32 +42 душно 1011.6 1011.1
12 11.08 СЗ 5
{8}
15 км ясно +32.8 +16.9 39 +36 +45 очень
душно
1011.0 1010.5
15 11.08 СЗ 4
{11}
15 км ясно +31.2 +16.3 41 +34 +37 душно 1009.5 1009.0
18 11.08 З 2
{8}
15 км ясно +29.4 +15.9 44 +32 +32 душно 1009.5 1009.0 +33.0
03 12.08 СЗ 2
{3}
10 км ясно +23.4 +14.7 58 +27 +27 душно 1009.8 1009.3
06 12.08 С 4
{6}
10 км ясно +25.4 +16.3 57 +29 +33 душно 1010.5 1009.9 +23.4 280
09 12.08 СЗ 5
{9}
10 км ясно +29.0 +18.1 52 +34 +42 очень
душно
1010.5 1009.9
12 12.08 СЗ 5
{10}
10 км ясно +32.6 +17.0 39 +36 +44 очень
душно
1008.3 1007.8
15 12.08 С 5
{11}
10 км ясно +32.6 +17.0 39 +36 +38 очень
душно
1006.5 1005.9
18 12.08 З 2
{7}
10 км ясно +29.8 +14.0 38 +32 +32 душно 1006.7 1006.2 +34.0
03 13.08 штиль 0
{3}
10 км ясно +21.4 +14.3 64 +24 +24 комфорт 1007.1 1006.6
06 13.08 С 5
{7}
10 км ясно +24.6 +19.0 71 +30 +32 очень
душно
1007.9 1007.4 +21.0 260
09 13.08 С 4
{8}
10 км ясно +26.2 +20.1 69 +32 +44 очень
душно
1007.8 1007.3
12 13.08 С 4
{7}
12 км ясно +30.2 +17.4 46 +34 +44 очень
душно
1006.7 1006.2
15 13.08 СЗ 6
{9}
12 км ясно +34.4 +11.1 24 +34 +35 очень
жарко
1005.5 1005.0
18 13.08 СЗ 4
{8}
10 км ясно +30.2 +11.9 32 +31 +31 жарко 1005.8 1005.3 +35.2
03 14.08 штиль 0
{2}
10 км ясно +22.0 +16.8 72 +26 +26 душно 1006.7 1006.2
06 14.08 СВ 2
{3}
10 км ясно +24.8 +18.5 68 +29 +35 душно 1007.1 1006.6 +22.0 280
09 14.08 С 4
{6}
10 км ясно +26.2 +18.7 63 +31 +43 очень
душно
1006.6 1006.0
12 14.08 С 3
{7}
12 км ясно +30.2 +15.4 41 +33 +46 душно 1006.0 1005.5
15 14.08 ЮВ 2
{5}
12 км ясно +32.4 +13.8 32 +34 +37 очень
жарко
1004.7 1004.2
18 14.08 штиль 0
{3}
10 км ясно +29.0 +14.2 40 +31 +31 жарко 1005.1 1004.6 +33.0
03 15.08 штиль 0
{3}
10 км 4/4 600 м
[Sc diur, vesp]
+22.8 +17.7 73 +28 +28 душно 1006.2 1005.6
06 15.08 штиль 0
{4}
10 км 3/3 600 м
[Cu hum]
+25.2 +19.7 72 +31 +36 очень
душно
1007.0 1006.5 +22.6 260
09 15.08 С 3
{6}
10 км 3/3 600 м
[Cu hum]
+27.0 +19.3 63 +33 +43 очень
душно
1007.0 1006.5
12 15.08 С 3
{5}
10 км ясно +29.6 +20.3 57 +36 +48 очень
душно
1006.6 1006.0
15 15.08 штиль 0
{6}
10 км ясно +30.4 +20.2 54 +37 +41 очень
душно
1005.8 1005.3
18 15.08 СЗ 3
{5}
10 км ясно +29.4 +19.0 54 +35 +35 очень
душно
1006.6 1006.0 +30.6
03 16.08 СЗ 4
{6}
10 км 3/3 600 м
[Cu hum]
+24.4 +18.1 68 +29 +29 душно 1009.5 1009.0
06 16.08 С 4
{5}
10 км ясно +26.0 +19.2 66 +31 +35 очень
душно
1010.6 1010.0 +24.4 260
09 16.08 С 3
{5}
12 км ясно +28.6 +19.1 56 +34 +47 очень
душно
1011.3 1010.7
12 16.08 С 4
{7}
10 км ясно +30.2 +17.4 46 +34 +44 очень
душно
1010.3 1009.8
15 16.08 СЗ 4
{7}
10 км ясно +31.4 +16.6 41 +35 +37 очень
душно
1009.3 1008.7
18 16.08 З 2
{5}
10 км ясно +28.8 +18.3 53 +34 +34 очень
душно
1009.3 1008.7 +32.4
03 17.08 СЗ 3
{4}
10 км 3/1 600 м
[Cu hum Ac trans]
+23.0 +18.3 75 +29 +29 очень
душно
1010.9 1010.3
06 17.08 СЗ 3
{6}
10 км 8/8 600 м
[Cu Sc]
+24.6 +18.3 68 +29 +30 душно 1011.9 1011.4 +23.0 260
09 17.08 СЗ 7
{13}
10 км 1/1 600 м
[Cu hum]
+25.6 +17.3 60 +30 +34 душно 1012.6 1012.0
12 17.08 С 5
{9}
10 км ясно +26.8 +18.0 59 +31 +40 душно 1012.3 1011.8
15 17.08 СЗ 4
{10}
10 км ясно +29.0 +17.0 48 +33 +35 очень
душно
1011.8 1011.3
18 17.08 С 4
{9}
10 км ясно +25.2 +16.9 60 +29 +29 душно 1012.5 1011.9 +29.0
00 18.08 СЗ 5
{7}
10 км ясно +22.8 +15.5 63 +27 +27 душно 1014.0 1013.5
03 18.08 СЗ 3
{8}
10 км ясно +21.6 +15.6 69 +25 +25 комфорт 1013.8 1013.3
06 18.08 С 5
{8}
10 км ясно +23.6 +15.7 61 +27 +29 жарко 1015.0 1014.5 +21.2 270

 

Местоположение метеостанции Митилини (Греция): широта 39.07 долгота 26.60 высота над уровнем моря 5 м.

В архиве по умолчанию представлена погода в Митилини за последнюю неделю. Архивные данные за месяц целиком и за предыдущие месяцы, начиная с января 2011 года, Вы можете получить, выбрав интересующий диапазон дат из раскрывающегося списка и нажав кнопку "Ввод!".


*Определитесь, кто Вы:
робот инопланетянин человек

Внимание! Время в таблицах - всемирное. Для получения местного времени необходимо прибавить поправку, которая равна 2 ч.

Смотрите также архив погоды в соседних городах и на ближайших метеорологических станциях:

Погода в Дикили (Турция) (23 км)
Погода в Айвалыке (Турция) (27 км)
Погода в Измир / Сигли (Турция) (73 км)
Погода в Измире (Турция) (87 км)
Погода в Манисе (Турция) (88 км)
Погода в Чешме (Турция) (90 км)
Погода на Хиосе (Греция) (92 км)
Погода в Измир аэропорту (Турция) (101 км)
Погода в Акхисаре (Турция) (109 км)
Погода в Чанаккале (Турция) (119 км)

Пояснения к столбцам:

Ветер - указаны скорость ветра в м/с - средняя за 10 мин, порывы в срок и между сроками (в фигурных скобках) и направление, откуда дует ветер: С - северный, СВ - северо-восточный, В - восточный, ЮВ - юго-восточный, Ю - южный, ЮЗ - юго-западный, З - западный, СЗ - северо-западный.
Видимость - горизонтальная дальность видимости в метрах или километрах. При видимости от 1 до 10 км при отсутствии осадков обычно наблюдается дымка, при ухудшении видимости до 1 км и менее - туман. В сухую погоду видимость может ухудшаться дымом, пылью или мглою.
Явления - указаны атмосферные явления, наблюдавшиеся в срок или в последний час перед сроком; фигурными скобками обозначены явления, наблюдавшиеся между сроками (за 1-3 часа до срока); квадратными скобками обозначены град или гололедные отложения с указанием их диаметра в мм.
Облачность - указаны через наклонную черту общая и нижняя облачность в баллах и высота нижней границы облаков в метрах; квадратными скобками обозначены формы облаков: Ci - перистые, Cs - перисто-слоистые, Cc - перисто-кучевые, Ac - высококучевые, As - высокослоистые, Sc - слоисто-кучевые, Ns - слоисто-дождевые, Cu - кучевые, Cb - кучево-дождевые. Подробнее классификацию облаков см. в Атласе облаков (PDF).
T - Температура воздуха - температура, измеренная на высоте 2 м над землей.
Td - Температура точки росы - температура, при понижении до которой содержащийся в воздухе водяной пар достигнет насыщения.
f - Относительная влажность воздуха - влажноcть воздуха, измеренная на высоте 2 м над землей.
Te - Эффективная температура - температура, которую ощущает одетый по сезону человек в тени. Характеристика душности погоды. При расчете учитывается влияние влажности воздуха и скорости ветра на теплоощущения человека.
Tes - Эффективная температура на солнце - температура, которую ощущает человек, с поправкой на солнечный нагрев. Характеристика знойности погоды. Зависит от высоты солнца над горизонтом, облачности и скорости ветра. Ночью, в пасмурную погоду, а также при ветре 12 м/с и более поправка равна нулю.
P - Атмосферное давление - приведенное к уровню моря атмосферное давление.
Po - Атмосферное давление - измеренное на уровне метеостанции атмосферное давление.
Tmin - Минимальная температура - минимум температуры воздуха на высоте 2 м над землей.
Tmax - Максимальная температура - максимум температуры воздуха на высоте 2 м над землей.
R - Количество осадков - Количество выпавших осадков за период времени, мм. При наведении курсора мыши на число - период времени, за который выпало указанное количество осадков.
R24 - Количество осадков - Количество выпавших осадков за 24 часа, мм.
S - Снежный покров - Высота снежного покрова, см. При наведении курсора мыши на число - состояние снежного покрова и степень покрытия местности в баллах.